Regional Weather Roundup
Issued by NWS

Home | Current Version | Previous Version | Graphics & Text | Print | Product List | Glossary On
Versions: 1 2 3 4 5 6 7 8 9 10 11 12 13 14 15 16 17 18 19 20 21 22 23 24 25 26 27 28 29 30 31 32 33 34 35 36 37 38 39 40 41 42 43 44 45 46 47 48 49 50
150
ASUS45 KTFX 170910
RWRMT
MONTANA REGIONAL WEATHER ROUNDUP
NATIONAL WEATHER SERVICE GREAT FALLS MT
300 AM MDT TUE OCT 17 2017

NOTE: "FAIR" INDICATES FEW OR NO CLOUDS BELOW 12000 FEET WITH NO
SIGNIFICANT WEATHER AND/OR OBSTRUCTIONS TO VISIBILITY.

MTZ001>007-043-171000-
WEST OF THE DIVIDE

CITY           SKY/WX    TMP DP  RH WIND       PRES   REMARKS
KALISPELL      MOCLDY    40  32  73 W6        30.04F
MISSOULA       CLEAR     34  28  79 VRB5      30.14F
BUTTE          CLEAR     30  24  78 CALM      30.22F
MULLAN PASS    CLEAR     43  22  43 VRB7      30.15F
ANACONDA         N/A     46  21  36 SW9       30.18F
DEER LODGE       N/A     43  25  49 CALM      30.18F
EUREKA           N/A     52  27  37 MISG      30.00F
HAMILTON         N/A     46  27  46 S16       30.16F
LIBBY            N/A     39  34  81 SE3       30.03F
PLAINS           N/A     31  24  75 MISG      30.09S
$$

MTZ008-052>055-171000-
SOUTHWEST MONTANA

CITY           SKY/WX    TMP DP  RH WIND       PRES   REMARKS
BOZEMAN        CLOUDY    35  26  69 SE8       30.18S WCI  29
DILLON         CLEAR     39  20  46 S13       30.23F WCI  31
W YELLOWSTONE  CLOUDY    23  18  80 CALM      30.35S
ENNIS          CLOUDY    39  19  45 S12       30.29F WCI  32
THREE FORKS      N/A     42  23  47 CALM      30.14F
TWIN BRIDGES     N/A     42  17  36 CALM      30.19F
$$

MTZ009-010-012-014-046-048-049-054-171000-
EAST SLOPES AND CENTRAL MONTANA

CITY           SKY/WX    TMP DP  RH WIND       PRES   REMARKS
CUT BANK       CLOUDY    56  22  26 SW25G35   29.92F
GREAT FALLS    CLEAR     55  22  27 SW21G30   29.98S
MALMSTROM AFB  CLEAR     56  23  27 SW25      29.98R
HELENA         CLEAR     41  28  60 N3        30.10F
CHOTEAU          N/A     55  19  24 S6        29.97F
$$

MTZ011-013-016-021-045-047-050-051-171000-
NORTH CENTRAL MONTANA

CITY           SKY/WX    TMP DP  RH WIND       PRES   REMARKS
HAVRE          CLOUDY    57  26  30 SW22      29.86S
LEWISTOWN      CLEAR     55  21  26 SW21      30.02F
N BAR RANCH      N/A     48  14  25 CALM      30.02F
CHINOOK          N/A     64  23  20 SW25G35   29.82F
$$

MTZ017>020-022>027-061-062-171000-
NORTHEAST MONTANA

CITY           SKY/WX    TMP DP  RH WIND       PRES   REMARKS
GLASGOW        CLEAR     56  26  31 SW10G18   29.86F
JORDAN           N/A     50  27  40 W5        29.92F
SIDNEY         CLEAR     40  31  70 S12       29.90F
WOLF POINT     PTCLDY    33  27  78 VRB3      29.87F
MALTA          CLEAR     59  27  29 W23       29.82S
PLENTYWOOD       N/A     52  28  40 CALM      29.84S
POPLAR           N/A     48  28  46 CALM      29.87F
SCOBEY           N/A     53  24  32 S17       29.83F
$$

MTZ028>42-056>058-171000-
SOUTHCENTRAL AND SOUTHEAST MONTANA

CITY           SKY/WX    TMP DP  RH WIND       PRES   REMARKS
BAKER          CLEAR     49  28  44 SW12      30.00S
BILLINGS       CLEAR     48  26  42 S12       30.06F
LIVINGSTON     CLEAR     53  18  25 SW30G41   30.15S
MILES CITY     CLEAR     45  29  53 SE5       29.99S
BIG TIMBER     CLEAR     52  16  24 W24       30.13R
EKALAKA          N/A     55  21  26 S7        30.01F
FORSYTH          N/A     55  23  28 W3        29.99F
LAUREL           N/A     43  25  49 SW9       30.08S
$$

REGIONAL REPORTS...DAKOTAS

CITY           SKY/WX    TMP DP  RH WIND       PRES   REMARKS
WILLISTON      CLOUDY    43  33  68 SW10      29.87F
MINOT          CLOUDY    52  33  48 SW12      29.85F
DICKINSON      CLEAR     44  29  55 S6        29.94F
BEACH            N/A     48  27  43 SW13      29.99S
CROSBY           N/A     45  32  61 SW15      29.82S
TIOGA            N/A     46  30  53 SW18      29.86F
WATFORD CITY     N/A     41  32  70 SW9       29.89F
BISMARCK       CLEAR     32  29  88 SE3       29.96F
GRAND FORKS    CLOUDY    39  34  82 SW5       29.88F
FARGO          CLOUDY    39  35  86 SW3       29.93S
BUFFALO SD       N/A     48  26  42 W9        29.96F
RAPID CITY     CLEAR     45  27  49 W9        30.08F
$$

REGIONAL REPORTS...WYOMING/IDAHO/WASHINGTON

CITY           SKY/WX    TMP DP  RH WIND       PRES   REMARKS
GILLETTE       CLOUDY    45  24  43 SE10      30.12F
SHERIDAN       CLOUDY    36  25  64 S5        30.09F
BUFFALO WY     CLOUDY    49  13  23 W8        30.14F
CODY           CLOUDY    57  15  19 W8G18     30.20R
YELLOWSTONE LA   N/A     23  19  85 CALM      30.39F
IDAHO FALLS    CLOUDY    29  26  89 N3        30.32S
SALMON         CLEAR     31  26  82 CALM      30.30R
BOISE          CLEAR     45  30  55 S3        30.23S
SPOKANE        CLEAR     46  33  60 SE9       30.04F
$$

REGIONAL REPORTS...ALBERTA

CITY           SKY/WX    TMP DP  RH WIND       PRES   REMARKS
EDMONTON       CLEAR     41  34  75 S5        29.54F
CALGARY        MOCLDY    48  34  57 CALM      29.66F
LETHBRIDGE     CLEAR     52  30  43 S17G23    29.80F
MEDICINE HAT   CLEAR     55  30  38 S9        29.72R
$$

REGIONAL REPORTS...SASKATCHEWAN

CITY           SKY/WX    TMP DP  RH WIND       PRES   REMARKS
SWIFT CURRENT  CLEAR     48  28  46 SW16      29.71S
REGINA         MOCLDY    48  28  46 SW14      29.71S
SASKATOON      CLEAR     41  32  70 S8        29.60F
$$




USA.gov is the U.S. government's official web portal to all federal, state and local government web resources and services.